Regional Weather Roundup
Issued by NWS Raleigh/Durham, NC

Home | Current Version | Previous Version | Text Only | Print | Product List | Glossary On
Versions: 1 2 3 4 5 6 7 8 9 10 11 12 13 14 15 16 17 18 19 20 21 22 23 24 25 26 27 28 29 30 31 32 33 34 35 36 37 38 39 40 41 42 43 44 45 46 47 48 49 50
000
ASUS42 KRAH 300410
RWRRAH
NORTH CAROLINA WEATHER ROUNDUP
NATIONAL WEATHER SERVICE RALEIGH NC
1200 AM EDT SAT AUG 30 2014

NOTE: "FAIR" INDICATES FEW OR NO CLOUDS BELOW 12,000 FEET WITH NO
SIGNIFICANT WEATHER AND/OR OBSTRUCTIONS TO VISIBILITY.

NCZ001-053-055-056-065-067-300500-
WESTERN NORTH CAROLINA

CITY           SKY/WX    TMP DP  RH WIND       PRES   REMARKS
ASHEVILLE      CLEAR     70  66  87 SW3       30.23
JEFFERSON      CLOUDY    67  65  94 CALM      30.28F FOG
HICKORY        NOT AVBL
RUTHERFORDTON  CLEAR     75  70  84 NE3       30.18R
MOUNT AIRY     NOT AVBL
BOONE          NOT AVBL
$$

NCZ021-022-025-041-071-084-088-300500-
CENTRAL NORTH CAROLINA

CITY           SKY/WX    TMP DP  RH WIND       PRES   REMARKS
CHARLOTTE      PTCLDY    78  71  79 E7        30.16S
GREENSBORO     CLOUDY    75  71  87 E5        30.18S
WINSTON-SALEM  CLOUDY    73  69  87 E5        30.20S
RALEIGH-DURHAM CLOUDY    76  69  79 SE7       30.19R
FORT BRAGG     CLEAR     76  74  92 E2        30.16S
FAYETTEVILLE   PTCLDY    78  70  76 CALM      30.16R
BURLINGTON     MOCLDY    73  69  87 E5        30.18S
LAURINBURG     CLEAR     76  69  79 E3        30.16S
$$

NCZ011-015-027-028-043-044-047-080-103-300500-
NORTHEASTERN NORTH CAROLINA

CITY           SKY/WX    TMP DP  RH WIND       PRES   REMARKS
ROCKY MT-WILSO CLOUDY    73  67  81 CALM      30.19S
GREENVILLE     MOCLDY    72  68  88 CALM      30.20R
WASHINGTON     CLEAR     71  67  88 CALM      30.19R
ELIZABETH CITY CLOUDY    74  66  76 E7        30.20
MANTEO         CLOUDY    75  67  76 E10       30.19S
CAPE HATTERAS  MOCLDY    77  75  93 E10       30.16F
$$

NCZ078-087-090-091-093-098-101-300500-
SOUTHEASTERN NORTH CAROLINA

CITY           SKY/WX    TMP DP  RH WIND       PRES   REMARKS
LUMBERTON      CLEAR     74  70  87 CALM      30.15S
GOLDSBORO      CLEAR     73  73  98 E3        30.16R
KINSTON        MOCLDY    74  72  93 CALM      30.19R
KENANSVILLE    MOCLDY    75  72  91 E3        30.18S
NEW BERN       CLEAR     76  70  82 NE5       30.19R
CHERRY POINT   CLEAR     76  73  91 CALM      30.18R
BEAUFORT       CLEAR     76  74  93 CALM      30.17R
JACKSONVILLE   CLEAR     77  73  87 E6        30.16R
WILMINGTON     CLEAR     73  71  93 NE5       30.16R
$$




USA.gov is the U.S. government's official web portal to all federal, state and local government web resources and services.